Moorhead, MN

5:38 PM CDT on April 24, 2017 (GMT -0500)
Moorhead Municipal

Weather History for KJKJ - December, 2013

Change the Weather History Date:

Monday, December 2, 2013

  Actual Average (KFAR) Record (KFAR)
Temperature  
Mean Temperature 29 °F -  
Max Temperature 30 °F 23 °F 55 °F (1982)
Min Temperature 26 °F 8 °F -30 °F (1886)
Degree Days  
Heating Degree Days 36    
Moisture  
Dew Point 29 °F    
Average Humidity 99    
Maximum Humidity 100    
Minimum Humidity 93    
Precipitation  
Precipitation 0.13 in - - ()
Sea Level Pressure  
Sea Level Pressure 29.66 in    
Wind  
Wind Speed 8 mph (ENE)    
Max Wind Speed 16 mph    
Max Gust Speed -    
Visibility 4 miles    
Events Rain , Snow    
Averages and records for this station are not official NWS values.
T = Trace of Precipitation, MM = Missing Value Source: NWS Daily Summary

Daily Weather History Graph

Daily Weather History Graph

Search for Another Location

Airport or City:

Trip Planner

Search our weather history database for the weather conditions in past years. The results will help you decide how hot, cold, wet, or windy it might be!

Date:

Astronomy

Dec. 02, 2013 Rise Set
Actual Time 7:52 AM CST 4:39 PM CST
Civil Twilight 7:17 AM CST 5:14 PM CST
Nautical Twilight 6:39 AM CST 5:52 PM CST
Astronomical Twilight 6:03 AM CST 6:28 PM CST
Moon 7:16 AM CST (12/2) 4:45 PM CST (12/2)
Length of Visible Light 9h 56m
Length of Day
8h 47m
Waning Crescent, 0% of the Moon is Illuminated
Dec 2
Waning Crescent
Dec 2
New
Dec 9
First Quarter
Dec 17
Full
Dec 25
Last Quarter

Hourly Weather History & Observations

Time (CST) Temp. Windchill Dew Point Humidity Pressure Visibility Wind Dir Wind Speed Gust Speed Precip Events Conditions
12:14 AM 28.4 °F 21.2 °F 28.4 °F 100% 29.81 in 7.0 mi SE 6.9 mph - N/A   Mostly Cloudy
12:35 AM 28.4 °F 22.2 °F 28.4 °F 100% 29.80 in 7.0 mi SE 5.8 mph - N/A   Mostly Cloudy
12:54 AM 28.4 °F 23.3 °F 28.4 °F 100% 29.80 in 7.0 mi SE 4.6 mph - N/A   Mostly Cloudy
1:15 AM 28.4 °F 23.3 °F 28.4 °F 100% 29.79 in 7.0 mi SE 4.6 mph - N/A   Scattered Clouds
1:34 AM 28.4 °F 21.2 °F 28.4 °F 100% 29.78 in 7.0 mi SE 6.9 mph - N/A   Scattered Clouds
1:55 AM 28.4 °F 22.2 °F 28.4 °F 100% 29.77 in 7.0 mi SE 5.8 mph - N/A   Clear
2:15 AM 28.4 °F 22.2 °F 28.4 °F 100% 29.77 in 7.0 mi ESE 5.8 mph - N/A   Scattered Clouds
2:34 AM 28.4 °F 22.2 °F 28.4 °F 100% 29.76 in 7.0 mi ESE 5.8 mph - N/A   Clear
2:55 AM 28.4 °F 21.2 °F 28.4 °F 100% 29.76 in 7.0 mi ESE 6.9 mph - N/A   Mostly Cloudy
3:15 AM 28.4 °F 21.2 °F 28.4 °F 100% 29.74 in 7.0 mi ESE 6.9 mph - N/A   Scattered Clouds
3:34 AM 28.4 °F 21.2 °F 28.4 °F 100% 29.74 in 7.0 mi SE 6.9 mph - N/A   Scattered Clouds
3:55 AM 30.2 °F 21.9 °F 28.4 °F 93% 29.72 in 7.0 mi SE 9.2 mph - N/A   Scattered Clouds
4:15 AM 30.2 °F 21.3 °F 28.4 °F 93% 29.71 in 7.0 mi SE 10.4 mph - N/A   Scattered Clouds
4:34 AM 30.2 °F 21.9 °F 28.4 °F 93% 29.71 in 7.0 mi SE 9.2 mph - N/A Rain Light Freezing Rain
4:55 AM 30.2 °F 21.3 °F 28.4 °F 93% 29.70 in 5.0 mi SE 10.4 mph - N/A Rain Light Freezing Rain
5:15 AM 30.2 °F 21.9 °F 28.4 °F 93% 29.69 in 5.0 mi SE 9.2 mph - N/A Rain Light Freezing Rain
5:34 AM 30.2 °F 21.9 °F 28.4 °F 93% 29.69 in 3.0 mi SE 9.2 mph - N/A Rain Light Freezing Rain
5:55 AM 30.2 °F 22.6 °F 28.4 °F 93% 29.68 in 3.0 mi SE 8.1 mph - N/A   Overcast
6:14 AM 30.2 °F 22.6 °F 30.2 °F 100% 29.67 in 3.0 mi SE 8.1 mph - N/A Rain Light Freezing Rain
6:35 AM 30.2 °F 22.6 °F 30.2 °F 100% 29.67 in 3.0 mi SE 8.1 mph - N/A Rain Light Freezing Rain
6:55 AM 30.2 °F 23.4 °F 30.2 °F 100% 29.66 in 3.0 mi ESE 6.9 mph - N/A Rain Light Freezing Rain
7:14 AM 28.4 °F 20.4 °F 28.4 °F 100% 29.66 in 3.0 mi ESE 8.1 mph - N/A Rain Light Freezing Rain
7:35 AM 28.4 °F 21.2 °F 28.4 °F 100% 29.65 in 2.5 mi ESE 6.9 mph - N/A   Overcast
7:55 AM 28.4 °F 20.4 °F 28.4 °F 100% 29.65 in 2.0 mi ESE 8.1 mph - N/A Snow Light Snow
8:14 AM 28.4 °F 22.2 °F 28.4 °F 100% 29.64 in 1.0 mi ESE 5.8 mph - N/A Snow Light Snow
8:35 AM 28.4 °F 21.2 °F 28.4 °F 100% 29.65 in 1.0 mi ESE 6.9 mph - N/A Snow Light Snow
8:55 AM 30.2 °F 22.6 °F 30.2 °F 100% 29.64 in 0.8 mi East 8.1 mph - N/A Snow Light Snow
9:14 AM 30.2 °F 23.4 °F 30.2 °F 100% 29.64 in 0.8 mi East 6.9 mph - 0.01 in Snow Light Snow
9:35 AM 30.2 °F 24.3 °F 30.2 °F 100% 29.64 in 0.5 mi East 5.8 mph - 0.01 in Snow Snow
9:54 AM 30.2 °F 25.4 °F 30.2 °F 100% 29.64 in 0.2 mi East 4.6 mph - 0.03 in Snow Snow
10:15 AM 30.2 °F 24.3 °F 30.2 °F 100% 29.64 in 0.5 mi East 5.8 mph - 0.02 in Snow Light Snow
10:34 AM 30.2 °F 23.4 °F 30.2 °F 100% 29.63 in 1.0 mi East 6.9 mph - 0.04 in Snow Light Snow
10:54 AM 30.2 °F 22.6 °F 30.2 °F 100% 29.63 in 0.8 mi ENE 8.1 mph - 0.05 in Snow Light Snow
11:15 AM 30.2 °F 23.4 °F 30.2 °F 100% 29.63 in 1.0 mi ENE 6.9 mph - N/A   Overcast
11:34 AM 30.2 °F 22.6 °F 30.2 °F 100% 29.62 in 0.8 mi ENE 8.1 mph - 0.01 in   Overcast
11:54 AM 30.2 °F 22.6 °F 30.2 °F 100% 29.61 in 1.0 mi ENE 8.1 mph - 0.01 in   Overcast
12:15 PM 30.2 °F 21.9 °F 30.2 °F 100% 29.61 in 1.2 mi East 9.2 mph - 0.01 in   Overcast
12:34 PM 30.2 °F 23.4 °F 30.2 °F 100% 29.61 in 0.8 mi East 6.9 mph - 0.01 in Snow Light Snow
12:54 PM 30.2 °F 23.4 °F 30.2 °F 100% 29.60 in 1.2 mi East 6.9 mph - 0.02 in Snow Light Snow
1:15 PM 30.2 °F 22.6 °F 30.2 °F 100% 29.59 in 0.8 mi East 8.1 mph - N/A Snow Light Snow
1:34 PM 30.2 °F 21.9 °F 30.2 °F 100% 29.59 in 0.8 mi ENE 9.2 mph - 0.01 in Snow Light Snow
1:55 PM 30.2 °F 22.6 °F 30.2 °F 100% 29.58 in 0.8 mi ENE 8.1 mph - 0.02 in Snow Light Snow
2:14 PM 30.2 °F 22.6 °F 30.2 °F 100% 29.58 in 1.0 mi ENE 8.1 mph - N/A Snow Light Snow
2:35 PM 30.2 °F 23.4 °F 30.2 °F 100% 29.58 in 2.0 mi NE 6.9 mph - N/A Rain Light Freezing Rain
2:54 PM 30.2 °F 24.3 °F 30.2 °F 100% 29.58 in 1.0 mi NE 5.8 mph - N/A Rain Light Freezing Rain
3:14 PM 30.2 °F 24.3 °F 30.2 °F 100% 29.58 in 1.2 mi NE 5.8 mph - N/A   Overcast
3:27 PM 30.2 °F 24.3 °F 30.2 °F 100% 29.58 in 1.2 mi NE 5.8 mph - N/A Rain Light Freezing Rain
3:54 PM 30.2 °F 22.6 °F 30.2 °F 100% 29.59 in 1.8 mi NE 8.1 mph - N/A Rain Light Freezing Rain
4:15 PM 30.2 °F 21.9 °F 30.2 °F 100% 29.59 in 2.0 mi NE 9.2 mph - N/A Rain Light Freezing Rain
4:35 PM 30.2 °F 22.6 °F 30.2 °F 100% 29.60 in 2.0 mi NNE 8.1 mph - N/A Rain Light Freezing Rain
4:54 PM 30.2 °F 21.9 °F 30.2 °F 100% 29.60 in 3.0 mi NE 9.2 mph - N/A Rain Light Freezing Rain
5:15 PM 30.2 °F 21.9 °F 30.2 °F 100% 29.60 in 3.0 mi NNE 9.2 mph - N/A   Light Freezing Rain
5:35 PM 30.2 °F 20.8 °F 30.2 °F 100% 29.60 in 3.0 mi NNE 11.5 mph - N/A   Overcast
5:54 PM 30.2 °F 20.2 °F 30.2 °F 100% 29.61 in 4.0 mi NNE 12.7 mph - N/A   Overcast
6:15 PM 30.2 °F 20.2 °F 30.2 °F 100% 29.61 in 4.0 mi NE 12.7 mph - N/A   Overcast
6:35 PM 30.2 °F 20.8 °F 30.2 °F 100% 29.62 in 4.0 mi NE 11.5 mph - N/A   Light Freezing Rain
6:54 PM 30.2 °F 20.8 °F 30.2 °F 100% 29.62 in 5.0 mi NE 11.5 mph - N/A Rain Light Freezing Rain
7:15 PM 30.2 °F 20.8 °F 30.2 °F 100% 29.63 in 4.0 mi NE 11.5 mph - N/A   Light Freezing Rain
7:35 PM 30.2 °F 20.2 °F 30.2 °F 100% 29.63 in 5.0 mi NE 12.7 mph - N/A   Overcast
7:54 PM 30.2 °F 20.2 °F 30.2 °F 100% 29.63 in 5.0 mi NNE 12.7 mph - N/A   Overcast
8:15 PM 30.2 °F 20.8 °F 30.2 °F 100% 29.63 in 5.0 mi NE 11.5 mph - N/A   Overcast
8:35 PM 30.2 °F 19.8 °F 30.2 °F 100% 29.63 in 5.0 mi NNE 13.8 mph - N/A   Overcast
8:55 PM 30.2 °F 19.8 °F 30.2 °F 100% 29.64 in 4.0 mi NE 13.8 mph - N/A   Overcast
9:14 PM 30.2 °F 20.8 °F 30.2 °F 100% 29.65 in 4.0 mi NNE 11.5 mph - N/A   Light Freezing Rain
9:35 PM 28.4 °F 18.0 °F 28.4 °F 100% 29.66 in 7.0 mi NNE 12.7 mph - N/A   Overcast
9:55 PM 28.4 °F 18.0 °F 28.4 °F 100% 29.66 in 7.0 mi NNE 12.7 mph - N/A   Overcast
10:14 PM 28.4 °F 18.0 °F 28.4 °F 100% 29.66 in 5.0 mi NNE 12.7 mph - N/A   Overcast
10:35 PM 28.4 °F 16.6 °F 28.4 °F 100% 29.65 in 4.0 mi NNE 16.1 mph - N/A   Overcast
10:55 PM 28.4 °F 17.0 °F 28.4 °F 100% 29.65 in 3.0 mi NNE 15.0 mph - N/A   Overcast
11:14 PM 28.4 °F 17.5 °F 28.4 °F 100% 29.66 in 10.0 mi NNE 13.8 mph - N/A   Overcast
11:35 PM 28.4 °F 18.0 °F 28.4 °F 100% 29.69 in 7.0 mi North 12.7 mph - N/A   Overcast
11:55 PM 26.6 °F 14.3 °F 26.6 °F 100% 29.67 in 7.0 mi NNE 16.1 mph - N/A   Overcast